EA3ANS-1 Weather Reports


time (UTC)temp
C
wind
direction
speed
KPH
gust
KPH
rain 1hr
cm
rain 24hr
cm
rain mn
cm
humidity
%
barometer
mb
20260504120243 20 150 14.5 29.0 0.00 0.05 0.00 1010.7
20260504110243 21 201 9.7 9.7 0.00 0.05 0.00 1010.9
20260504100242 21 159 6.4 9.7 0.00 0.05 0.00 1011.4
20260504081248 18 316 6.4 3.2 0.00 0.05 0.00 1012.1
20260504080243 18 4 6.4 3.2 0.00 0.05 0.00 1012.1
20260504070247 17 333 4.8 11.3 0.00 0.05 0.00 1012.7
20260504060248 15 208 4.8 4.8 0.00 0.05 0.00 1012.3
20260504050242 15 39 0.0 0.0 0.00 0.05 0.00 1012.7
20260504045244 15 319 4.8 3.2 0.00 0.05 0.00 1012.8
20260504044247 15 343 4.8 4.8 0.00 0.05 0.00 1012.8
20260504043243 15 350 0.0 0.0 0.00 0.05 0.00 1013.0
20260504042246 15 350 3.2 0.0 0.00 0.05 0.00 1013.0
20260504041248 15 34 0.0 0.0 0.00 0.05 0.00 1012.9
20260504040247 15 34 0.0 0.0 0.00 0.05 0.00 1012.9
20260504035250 15 34 0.0 0.0 0.00 0.05 0.00 1012.9
20260504034252 15 34 0.0 0.0 0.00 0.05 0.00 1012.8
20260504033255 15 34 0.0 0.0 0.00 0.05 0.00 1012.8
20260504032247 15 34 0.0 0.0 0.00 0.05 0.00 1012.9
20260504030252 15 53 1.6 3.2 0.00 0.05 0.00 1013.0
20260504025255 15 121 1.6 0.0 0.00 0.05 0.00 1013.0
20260504024258 15 39 0.0 0.0 0.00 0.05 0.00 1013.0
20260504023300 15 39 0.0 0.0 0.00 0.05 0.00 1012.9
20260504022304 15 39 0.0 0.0 0.00 0.05 0.00 1012.8
20260504021252 15 38 0.0 0.0 0.00 0.05 0.00 1012.9
20260504020251 15 111 3.2 3.2 0.00 0.05 0.00 1013.0
20260504015254 15 138 4.8 4.8 0.00 0.05 0.00 1013.2
20260504014256 15 246 0.0 0.0 0.00 0.05 0.00 1013.2
20260504013255 15 246 0.0 0.0 0.00 0.05 0.00 1013.1
20260504012257 15 246 0.0 0.0 0.00 0.05 0.00 1013.3
20260504011251 15 263 1.6 3.2 0.00 0.05 0.00 1013.4
20260504010244 15 197 0.0 0.0 0.00 0.05 0.00 1013.4
20260504005247 15 208 0.0 0.0 0.00 0.05 0.00 1013.5
20260504004250 15 245 1.6 3.2 0.00 0.05 0.00 1013.7
20260504003252 15 120 1.6 3.2 0.00 0.05 0.00 1013.6
20260504002255 15 75 3.2 3.2 0.00 0.05 0.00 1013.8
20260504001257 15 215 0.0 0.0 0.00 0.05 0.00 1013.8
20260504000300 15 150 0.0 0.0 0.00 0.05 0.00 1013.9
20260503235253 15 224 3.2 1.6 0.00 0.05 0.00 1013.8
20260503234256 15 191 0.0 0.0 0.00 0.05 0.00 1013.8
20260503233254 15 204 1.6 1.6 0.00 0.05 0.00 1014.0
20260503232256 15 146 0.0 0.0 0.00 0.05 0.00 1013.9
20260503231252 15 170 0.0 1.6 0.00 0.05 0.00 1014.0
20260503230254 15 198 0.0 0.0 0.00 0.05 0.00 1014.0
20260503225252 15 170 0.0 4.8 0.00 0.05 0.00 1014.0
20260503224248 15 205 3.2 4.8 0.00 0.05 0.00 1014.0
20260503223251 15 179 4.8 3.2 0.00 0.05 0.00 1013.9
20260503222254 15 149 0.0 6.4 0.00 0.05 0.00 1013.9
20260503221256 15 69 4.8 6.4 0.00 0.05 0.00 1013.9
20260503220259 15 63 6.4 11.3 0.00 0.05 0.00 1013.6
20260503215258 16 75 4.8 8.0 0.00 0.00 0.05 1013.8
20260503214301 16 45 9.7 12.9 0.00 0.00 0.05 1013.8
20260503213257 16 165 1.6 6.4 0.00 0.00 0.05 1014.0
20260503212300 16 121 1.6 1.6 0.00 0.00 0.05 1013.9
20260503211303 16 69 4.8 6.4 0.00 0.00 0.05 1014.1
20260503210305 16 124 3.2 1.6 0.00 0.00 0.05 1014.1
20260503205255 16 205 3.2 3.2 0.00 0.00 0.05 1014.1
20260503204246 16 233 0.0 0.0 0.00 0.00 0.05 1014.1
20260503203245 16 239 0.0 0.0 0.00 0.00 0.05 1014.0
20260503202241 16 239 0.0 0.0 0.00 0.00 0.05 1014.0
20260503201241 16 221 0.0 0.0 0.00 0.00 0.05 1014.1
20260503200243 16 221 0.0 0.0 0.00 0.00 0.05 1014.1
20260503195243 16 187 1.6 1.6 0.00 0.00 0.05 1014.0
20260503194241 16 181 0.0 4.8 0.00 0.00 0.05 1014.0
20260503193243 16 224 4.8 3.2 0.00 0.00 0.05 1013.9
20260503192245 16 132 4.8 4.8 0.00 0.00 0.05 1013.7
20260503191241 16 181 4.8 4.8 0.00 0.00 0.05 1013.6
20260503190243 16 120 3.2 6.4 0.00 0.00 0.05 1013.6
20260503185243 16 129 6.4 8.0 0.00 0.00 0.05 1013.5
20260503184242 16 122 4.8 6.4 0.00 0.00 0.05 1013.5
20260503183244 16 124 6.4 4.8 0.00 0.00 0.05 1013.5
20260503182246 17 127 4.8 3.2 0.00 0.00 0.05 1013.6
20260503181248 17 212 6.4 3.2 0.00 0.00 0.05 1013.3
20260503180243 16 153 4.8 8.0 0.00 0.00 0.05 1013.3
20260503175243 17 89 4.8 1.6 0.00 0.00 0.05 1013.6
20260503174243 17 150 6.4 8.0 0.00 0.00 0.05 1013.6
20260503173243 17 82 4.8 4.8 0.00 0.00 0.05 1013.3
20260503172246 17 128 6.4 3.2 0.00 0.00 0.05 1013.1
20260503171248 17 73 9.7 11.3 0.00 0.00 0.05 1013.1
20260503170251 17 91 8.0 6.4 0.00 0.00 0.05 1013.1
20260503150244 18 96 6.4 1.6 0.00 0.00 0.05 1012.9
20260503140240 19 107 6.4 8.0 0.00 0.00 0.05 1013.9
20260503131246 19 205 11.3 3.2 0.00 0.00 0.05 1014.8
20260503130248 19 128 6.4 9.7 0.00 0.00 0.05 1014.9